FW2489 Weather Reports


Display with metric or nautical units.
time (UTC)temp
F
wind
direction
speed
MPH
gust
MPH
rain 1hr
in
rain 24hr
in
rain mn
in
humidity
%
barometer
mb
20210927163015 60 262 3.0 8.0 0.00 0.00 0.00 89 1017.9
20210927160010 60 261 3.0 8.0 0.00 0.00 0.00 88 1017.3
20210927153005 60 241 1.0 5.0 0.00 0.00 0.00 89 1016.9
20210927150005 60 238 0.0 5.0 0.00 0.00 0.00 90 1016.5
20210927142955 60 262 2.0 8.0 0.00 0.00 0.00 90 1015.8
20210927135949 60 274 1.0 5.0 0.00 0.00 0.00 91 1015.8
20210927132939 60 282 0.0 2.0 0.00 0.00 0.00 91 1015.5
20210927125932 60 238 0.0 2.0 0.00 0.00 0.00 91 1015.8
20210927122923 60 245 1.0 5.0 0.00 0.00 0.00 90 1015.5
20210927115914 60 258 2.0 2.0 0.00 0.00 0.00 90 1015.5
20210927112905 60 271 0.0 5.0 0.00 0.00 0.00 90 1015.8
20210927105858 60 260 0.0 0.0 0.00 0.00 0.00 91 1016.1
20210927102849 60 263 0.0 0.0 0.00 0.00 0.00 92 1016.1
20210927095842 59 218 0.0 0.0 0.00 0.00 0.00 93 1016.5
20210927092838 59 212 0.0 2.0 0.00 0.00 0.00 93 1016.9
20210927085837 59 52 0.0 0.0 0.00 0.00 0.00 94 1016.9
20210927082830 59 209 0.0 0.0 0.00 0.00 0.00 94 1016.9
20210927075829 59 184 0.0 0.0 0.00 0.00 0.00 94 1016.9
20210927072824 58 219 0.0 0.0 0.00 0.00 0.00 94 1016.9
20210927065822 58 227 0.0 0.0 0.00 0.00 0.00 93 1016.9
20210927062816 58 218 0.0 2.0 0.00 0.00 0.00 93 1016.9
20210927055815 59 221 0.0 2.0 0.00 0.00 0.00 92 1016.9
20210927052811 60 197 1.0 2.0 0.00 0.00 0.00 92 1016.5
20210927045801 60 223 0.0 2.0 0.00 0.00 0.00 91 1016.5
20210927042757 60 219 0.0 2.0 0.00 0.00 0.00 91 1016.5
20210927035745 61 230 0.0 8.0 0.00 0.00 0.00 89 1016.1
20210927032736 61 231 3.0 8.0 0.00 0.00 0.00 88 1016.1
20210927025728 62 236 0.0 8.0 0.00 0.00 0.00 87 1016.1
20210927022729 62 231 2.0 5.0 0.00 0.00 0.00 87 1016.1
20210927015725 62 234 3.0 8.0 0.00 0.00 0.00 86 1016.1
20210927012723 62 285 5.0 8.0 0.00 0.00 0.00 86 1015.8
20210927005716 62 268 1.0 8.0 0.00 0.00 0.00 85 1015.8
20210927002711 63 281 5.0 8.0 0.00 0.00 0.00 84 1016.1
20210926235703 64 201 1.0 10.0 0.00 0.00 0.00 82 1016.1
20210926232652 64 215 4.0 10.0 0.00 0.00 0.00 81 1016.1
20210926225642 64 221 6.0 13.0 0.00 0.00 0.00 81 1016.5
20210926222635 64 205 4.0 10.0 0.00 0.00 0.00 79 1016.5
20210926215635 65 255 2.0 10.0 0.00 0.00 0.00 78 1016.5
20210926212627 65 243 6.0 13.0 0.00 0.00 0.00 77 1016.1
20210926205618 64 213 5.0 13.0 0.00 0.00 0.00 78 1016.5
20210926202610 64 235 5.0 13.0 0.00 0.00 0.00 78 1016.5
20210926195607 64 291 3.0 10.0 0.00 0.00 0.00 79 1016.9
20210926192552 63 254 5.0 10.0 0.00 0.00 0.00 80 1016.9
20210926185550 62 266 4.0 10.0 0.00 0.00 0.00 83 1017.3
20210926182543 62 273 1.0 8.0 0.00 0.00 0.00 84 1016.9
20210926175539 61 236 3.0 8.0 0.00 0.00 0.00 85 1017.3
20210926172537 62 206 0.0 2.0 0.00 0.00 0.00 86 1017.3
20210926165531 61 79 1.0 2.0 0.00 0.00 0.00 86 1016.9